COSMOS 2516 (753)

Last updated on Oct. 25, 2020, 5:57 a.m. UTC

1 41554U 16032A   20298.33189003  .00000008  00000-0  00000+0 0  9996
2 41554  64.0713 262.3767 0014590 224.4651  10.6893  2.13101757 34289
UTC
Height (km)
Latitude
Longitude
Inclination
Orbital Period
UTC large
Height (km)
Speed (km/s)
/
Latitude / Longitude
Inclination (degrees)
Orbital Period (minutes)
Azimuth
Elevation
Range (km)
Doppler Factor
iOS Compass Heading
iOS Angle

Next 30 passes for location: Hong Kong

Rise time Rise Azimuth (degrees) Set time Set Azimuth (degrees) Duration Max altitude (degrees)

No matching passes for this satellites